Weather History for Glendive, MT

Change the Weather History Date:

Wednesday, February 19, 2014

  Actual Average Record
Temperature  
Mean Temperature 33 °F -  
Max Temperature 42 °F 31 °F 46 °F (2002)
Min Temperature 24 °F 13 °F -2 °F (2011)
Degree Days  
Heating Degree Days 32    
Moisture  
Dew Point 23 °F    
Average Humidity 66    
Maximum Humidity 86    
Minimum Humidity 39    
Precipitation  
Precipitation 0.00 in - - ()
Sea Level Pressure  
Sea Level Pressure 29.53 in    
Wind  
Wind Speed 12 mph (SW)    
Max Wind Speed 23 mph    
Max Gust Speed 30 mph    
Visibility 10 miles    
Events      
Averages and records for this station are not official NWS values.
T = Trace of Precipitation, MM = Missing Value Source: NWS Daily Summary

Daily Weather History Graph

Daily Weather History Graph

Search for Another Location

Airport:

Trip Planner

Search our weather history database for the weather conditions in past years. The results will help you decide how hot, cold, wet, or windy it might be!

Date:

Astronomy

Feb. 19, 2014 Rise Set
Actual Time 6:57 AM MST 5:29 PM MST
Civil Twilight 6:25 AM MST 6:00 PM MST
Nautical Twilight 5:50 AM MST 6:36 PM MST
Astronomical Twilight 5:15 AM MST 7:11 PM MST
Moon 10:48 PM MST (2/19) 8:44 AM MST (2/19)
Length of Visible Light 11h 34m
Length of Day
10h 32m
Waning Gibbous, 79% of the Moon is Illuminated
Feb 19
Waning Gibbous
Feb 22
Last Quarter
Mar 1
New
Mar 8
First Quarter
Mar 16
Full

Hourly Weather History & Observations

Time (MST) Temp. Windchill Dew Point Humidity Pressure Visibility Wind Dir Wind Speed Gust Speed Precip Events Conditions
12:15 AM 24.8 °F 16.9 °F 21.2 °F 86% 29.67 in 10.0 mi SSE 6.9 mph - N/A   Clear
12:35 AM 24.8 °F 17.9 °F 21.2 °F 86% 29.66 in 10.0 mi SSE 5.8 mph - N/A   Clear
12:55 AM 24.8 °F 16.9 °F 19.4 °F 80% 29.65 in 10.0 mi South 6.9 mph - N/A   Clear
1:15 AM 26.6 °F 18.2 °F 21.2 °F 80% 29.64 in 10.0 mi SSE 8.1 mph - N/A   Clear
1:35 AM 28.4 °F 22.2 °F 21.2 °F 74% 29.63 in 10.0 mi SSE 5.8 mph - N/A   Clear
2:15 AM 28.4 °F 23.3 °F 21.2 °F 74% 29.60 in 10.0 mi South 4.6 mph - N/A   Clear
2:35 AM 28.4 °F 20.4 °F 21.2 °F 74% 29.58 in 10.0 mi South 8.1 mph - N/A   Clear
2:55 AM 26.6 °F 18.2 °F 21.2 °F 80% 29.58 in 10.0 mi South 8.1 mph - N/A   Clear
3:15 AM 26.6 °F 18.2 °F 21.2 °F 80% 29.56 in 10.0 mi South 8.1 mph - N/A   Clear
3:55 AM 28.4 °F 18.5 °F 21.2 °F 74% 29.52 in 10.0 mi South 11.5 mph - N/A   Clear
4:15 AM 28.4 °F 18.5 °F 21.2 °F 74% 29.51 in 10.0 mi South 11.5 mph - N/A   Clear
4:35 AM 30.2 °F 19.8 °F 21.2 °F 69% 29.50 in 10.0 mi South 13.8 mph - N/A   Clear
4:55 AM 30.2 °F 19.3 °F 21.2 °F 69% 29.49 in 10.0 mi South 15.0 mph - N/A   Clear
5:15 AM 30.2 °F 20.2 °F 21.2 °F 69% 29.48 in 10.0 mi South 12.7 mph - N/A   Partly Cloudy
5:35 AM 30.2 °F 20.8 °F 21.2 °F 69% 29.47 in 10.0 mi South 11.5 mph - N/A   Partly Cloudy
5:55 AM 30.2 °F 21.3 °F 21.2 °F 69% 29.47 in 10.0 mi SSW 10.4 mph - N/A   Mostly Cloudy
6:15 AM 30.2 °F 20.8 °F 21.2 °F 69% 29.45 in 10.0 mi South 11.5 mph - N/A   Overcast
6:35 AM 30.2 °F 21.3 °F 21.2 °F 69% 29.44 in 10.0 mi SSW 10.4 mph - N/A   Mostly Cloudy
6:55 AM 30.2 °F 20.8 °F 21.2 °F 69% 29.44 in 10.0 mi SSW 11.5 mph - N/A   Mostly Cloudy
7:15 AM 30.2 °F 20.8 °F 21.2 °F 69% 29.44 in 10.0 mi SSW 11.5 mph - N/A   Mostly Cloudy
7:35 AM 32.0 °F 22.5 °F 23.0 °F 69% 29.44 in 10.0 mi SSW 12.7 mph - N/A   Mostly Cloudy
7:55 AM 32.0 °F 23.6 °F 23.0 °F 69% 29.44 in 10.0 mi SSW 10.4 mph 21.9 mph N/A   Overcast
8:15 AM 32.0 °F 25.6 °F 23.0 °F 69% 29.47 in 10.0 mi SW 6.9 mph - N/A   Mostly Cloudy
8:35 AM 33.8 °F 25.3 °F 26.6 °F 75% 29.46 in 10.0 mi SSW 11.5 mph - N/A   Overcast
8:55 AM 37.4 °F 28.9 °F 28.4 °F 70% 29.46 in 10.0 mi WSW 13.8 mph 19.6 mph N/A   Mostly Cloudy
9:15 AM 39.2 °F 30.2 °F 28.4 °F 65% 29.47 in 10.0 mi WSW 17.3 mph 23.0 mph N/A   Overcast
9:35 AM 39.2 °F 30.2 °F 32.0 °F 75% 29.48 in 10.0 mi West 17.3 mph 25.3 mph N/A   Overcast
9:55 AM 37.4 °F 26.9 °F 32.0 °F 81% 29.48 in 10.0 mi West 20.7 mph 27.6 mph N/A   Overcast
10:15 AM 37.4 °F 28.5 °F 32.0 °F 81% 29.48 in 10.0 mi West 15.0 mph - N/A   Overcast
10:35 AM 37.4 °F 28.9 °F 30.2 °F 75% 29.49 in 10.0 mi WNW 13.8 mph 17.3 mph N/A   Overcast
10:55 AM 37.4 °F 30.3 °F 28.4 °F 70% 29.49 in 10.0 mi West 10.4 mph - N/A   Overcast
11:15 AM 39.2 °F 31.2 °F 30.2 °F 70% 29.50 in 10.0 mi West 13.8 mph 18.4 mph N/A   Overcast
11:35 AM 37.4 °F 31.4 °F 28.4 °F 70% 29.50 in 10.0 mi WSW 8.1 mph 17.3 mph N/A   Overcast
11:55 AM 39.2 °F 33.0 °F 30.2 °F 70% 29.50 in 10.0 mi SW 9.2 mph - N/A   Scattered Clouds
12:15 PM 39.2 °F 32.0 °F 33.8 °F 81% 29.50 in 10.0 mi WSW 11.5 mph - N/A   Partly Cloudy
12:35 PM 39.2 °F 32.5 °F 33.8 °F 81% 29.50 in 10.0 mi SW 10.4 mph - N/A   Clear
12:55 PM 41.0 °F 32.5 °F 21.2 °F 45% 29.49 in 10.0 mi West 17.3 mph 26.5 mph N/A   Clear
1:15 PM 42.8 °F 33.5 °F 21.2 °F 42% 29.50 in 10.0 mi West 23.0 mph 28.8 mph N/A   Clear
1:35 PM 39.2 °F 29.3 °F 19.4 °F 45% 29.50 in 10.0 mi West 20.7 mph 24.2 mph N/A   Clear
1:55 PM 39.2 °F 31.6 °F 21.2 °F 49% 29.51 in 10.0 mi West 12.7 mph - N/A   Partly Cloudy
2:15 PM 39.2 °F 31.2 °F 21.2 °F 49% 29.51 in 10.0 mi West 13.8 mph - N/A   Partly Cloudy
2:35 PM 42.8 °F 34.3 °F 21.2 °F 42% 29.51 in 10.0 mi West 19.6 mph 23.0 mph N/A   Clear
2:55 PM 42.8 °F 34.0 °F 21.2 °F 42% 29.51 in 10.0 mi West 20.7 mph - N/A   Clear
3:15 PM 41.0 °F 31.9 °F 21.2 °F 45% 29.52 in 10.0 mi West 19.6 mph 24.2 mph N/A   Clear
3:35 PM 41.0 °F 31.6 °F 17.6 °F 39% 29.53 in 10.0 mi West 20.7 mph 25.3 mph N/A   Clear
3:55 PM 41.0 °F 33.5 °F 17.6 °F 39% 29.53 in 10.0 mi West 13.8 mph 23.0 mph N/A   Clear
4:15 PM 39.2 °F 31.6 °F 17.6 °F 42% 29.52 in 10.0 mi West 12.7 mph - N/A   Clear
4:35 PM 39.2 °F 30.8 °F 19.4 °F 45% 29.53 in 10.0 mi West 15.0 mph 24.2 mph N/A   Clear
4:55 PM 37.4 °F 28.2 °F 19.4 °F 48% 29.53 in 10.0 mi West 16.1 mph - N/A   Clear
5:15 PM 35.6 °F 26.2 °F 21.2 °F 56% 29.54 in 10.0 mi West 15.0 mph - N/A   Clear
5:35 PM 35.6 °F 25.9 °F 21.2 °F 56% 29.54 in 10.0 mi West 16.1 mph 21.9 mph N/A   Clear
6:35 PM 33.8 °F 22.8 °F 23.0 °F 65% 29.58 in 10.0 mi WNW 18.4 mph 21.9 mph N/A   Scattered Clouds
6:55 PM 32.0 °F 20.1 °F 24.8 °F 75% 29.59 in 10.0 mi West 19.6 mph 26.5 mph N/A   Partly Cloudy
7:15 PM 30.2 °F 18.9 °F 26.6 °F 86% 29.58 in 10.0 mi WSW 16.1 mph 20.7 mph N/A   Scattered Clouds
7:35 PM 30.2 °F 17.4 °F 24.8 °F 80% 29.57 in 10.0 mi WSW 20.7 mph 27.6 mph N/A   Clear
7:55 PM 30.2 °F 18.1 °F 24.8 °F 80% 29.56 in 10.0 mi WSW 18.4 mph 26.5 mph N/A   Clear
8:15 PM 32.0 °F 20.1 °F 21.2 °F 64% 29.57 in 10.0 mi West 19.6 mph 29.9 mph N/A   Clear
8:35 PM 32.0 °F 20.5 °F 21.2 °F 64% 29.57 in 10.0 mi West 18.4 mph 25.3 mph N/A   Clear
8:55 PM 32.0 °F 19.5 °F 21.2 °F 64% 29.56 in 10.0 mi WSW 21.9 mph 27.6 mph N/A   Clear
9:15 PM 30.2 °F 17.1 °F 19.4 °F 64% 29.57 in 10.0 mi West 21.9 mph - N/A   Clear
9:35 PM 30.2 °F 17.8 °F 19.4 °F 64% 29.57 in 10.0 mi WSW 19.6 mph 26.5 mph N/A   Clear
9:55 PM 30.2 °F 17.8 °F 19.4 °F 64% 29.57 in 10.0 mi WSW 19.6 mph 25.3 mph N/A   Clear
10:15 PM 30.2 °F 18.1 °F 19.4 °F 64% 29.57 in 10.0 mi WSW 18.4 mph 24.2 mph N/A   Clear
10:35 PM 30.2 °F 18.1 °F 19.4 °F 64% 29.56 in 10.0 mi WSW 18.4 mph 25.3 mph N/A   Clear
10:55 PM 32.0 °F 20.1 °F 19.4 °F 60% 29.56 in 10.0 mi WSW 19.6 mph 26.5 mph N/A   Scattered Clouds
11:15 PM 32.0 °F 20.5 °F 17.6 °F 55% 29.57 in 10.0 mi West 18.4 mph - N/A   Overcast
11:35 PM 30.2 °F 17.8 °F 23.0 °F 75% 29.58 in 10.0 mi WNW 19.6 mph 28.8 mph N/A   Overcast
11:55 PM 30.2 °F 17.8 °F 23.0 °F 75% 29.59 in 10.0 mi West 19.6 mph 27.6 mph N/A   Overcast